SV1BIX Weather Reports


time (UTC)temp
F
wind
direction
speed
knots
gust
knots
rain 1hr
in
rain 24hr
in
rain mn
in
humidity
%
barometer
mb
20260508053052 67 197 2.6 6.1 0.00 0.00 0.00 39 1018.4
20260508051552 67 197 0.0 0.9 0.00 0.00 0.00 42 1018.1
20260508050041 66 197 0.0 0.9 0.00 0.00 0.00 42 1017.9
20260508044551 66 197 0.0 2.6 0.00 0.00 0.00 44 1018.1
20260508043037 0 0.0 0.0 0.00 0.00 0.00 1017.9
20260508041539 0 0.0 0.0 0.00 0.00 0.00 1017.4
20260508040026 0 0.0 0.0 0.00 0.00 0.00 1017.0
20260508034523 0 0.0 0.0 0.00 0.00 0.00 1016.8
20260508033025 0 0.0 0.0 0.00 0.00 0.00 1016.8
20260508031514 0 0.0 0.0 0.00 0.00 0.00 1016.9
20260508030010 0 0.0 0.0 0.00 0.00 0.00 1016.9
20260508024547 0 0.0 0.0 0.00 0.00 0.00 1016.8
20260508023047 0 0.0 0.0 0.00 0.00 0.00 1017.1
20260508021533 68 197 1.7 6.1 0.00 0.00 0.00 37 1017.0
20260508020026 68 197 3.5 6.1 0.00 0.00 0.00 37 1017.0
20260508014527 67 197 3.5 7.8 0.00 0.00 0.00 40 1017.1
20260508013023 67 197 3.5 7.0 0.00 0.00 0.00 42 1017.3
20260508011518 67 197 3.5 7.8 0.00 0.00 0.00 42 1017.5
20260508010034 66 197 2.6 6.1 0.00 0.00 0.00 46 1017.5
20260508004522 66 197 0.0 0.9 0.00 0.00 0.00 51 1017.8
20260508003020 66 197 0.0 0.9 0.00 0.00 0.00 51 1017.6
20260508001558 66 197 0.0 0.9 0.00 0.00 0.00 49 1017.8
20260508000055 67 197 0.0 3.5 0.00 0.00 0.00 47 1017.7
20260507234539 66 197 0.0 3.5 0.00 0.00 0.00 47 1018.1
20260507233034 66 197 0.0 0.9 0.00 0.00 0.00 53 1018.4
20260507231522 66 197 0.0 3.5 0.00 0.00 0.00 48 1018.5
20260507230020 65 197 0.0 4.3 0.00 0.00 0.00 57 1018.3
20260507224521 65 197 2.6 6.1 0.00 0.00 0.00 60 1018.6
20260507223016 65 197 0.0 3.5 0.00 0.00 0.00 59 1018.7
20260507221519 66 197 0.9 4.3 0.00 0.00 0.00 56 1018.6
20260507220018 65 197 2.6 7.8 0.00 0.00 0.00 59 1018.7
20260507214510 66 197 2.6 7.8 0.00 0.00 0.00 55 1019.1
20260507213018 66 197 3.5 7.0 0.00 0.00 0.00 53 1019.1
20260507211555 66 197 3.5 10.4 0.00 0.00 0.00 51 1019.0
20260507210116 66 198 6.1 12.2 0.00 0.00 0.00 51 1019.1
20260507204559 67 197 6.1 11.3 0.00 0.00 0.00 44 1019.0
20260507203057 68 196 3.5 8.7 0.00 0.00 0.00 39 1019.2
20260507201551 69 197 6.1 9.6 0.00 0.00 0.00 33 1019.0
20260507194550 69 197 6.1 10.4 0.00 0.00 0.00 35 1019.0
20260507193109 69 197 1.7 5.2 0.00 0.00 0.00 39 1018.8
20260507191536 69 197 1.7 8.7 0.00 0.00 0.00 38 1018.7
20260507190039 69 197 1.7 9.6 0.00 0.00 0.00 34 1018.6
20260507184534 69 197 5.2 9.6 0.00 0.00 0.00 35 1018.7
20260507183039 68 196 3.5 7.0 0.00 0.00 0.00 39 1018.6
20260507181532 68 197 6.1 9.6 0.00 0.00 0.00 39 1018.6
20260507180032 68 197 4.3 9.6 0.00 0.00 0.00 44 1018.7
20260507174532 67 197 4.3 7.8 0.00 0.00 0.00 45 1018.5
20260507173031 68 197 4.3 8.7 0.00 0.00 0.00 46 1018.6
20260507171519 69 197 3.5 7.0 0.00 0.00 0.00 43 1018.7
20260507170019 70 197 1.7 6.1 0.00 0.00 0.00 38 1018.2
20260507164518 70 197 5.2 8.7 0.00 0.00 0.00 39 1018.1
20260507163017 70 197 4.3 9.6 0.00 0.00 0.00 38 1018.2
20260507161520 70 197 4.3 9.6 0.00 0.00 0.00 39 1018.2
20260507160027 71 197 5.2 9.6 0.00 0.00 0.00 40 1018.0
20260507154517 71 197 5.2 10.4 0.00 0.00 0.00 38 1018.2
20260507153020 71 200 7.8 12.2 0.00 0.00 0.00 38 1018.4
20260507151506 71 197 4.3 9.6 0.00 0.00 0.00 41 1018.6
20260507150003 71 197 2.6 9.6 0.00 0.00 0.00 43 1018.5
20260507144502 71 197 6.1 11.3 0.00 0.00 0.00 41 1018.6
20260507143002 71 200 4.3 12.2 0.00 0.00 0.00 42 1018.5
20260507141503 71 198 7.0 12.2 0.00 0.00 0.00 40 1018.6
20260507140111 72 201 7.8 14.8 0.00 0.00 0.00 39 1018.2
20260507134609 73 200 5.2 13.0 0.00 0.00 0.00 37 1018.2
20260507133108 74 201 7.0 11.3 0.00 0.00 0.00 33 1018.0
20260507131546 73 198 6.1 12.2 0.00 0.00 0.00 33 1017.9
20260507130044 72 201 7.0 11.3 0.00 0.00 0.00 37 1018.2
20260507124542 73 197 6.1 13.0 0.00 0.00 0.00 38 1018.5
20260507123045 73 200 5.2 11.3 0.00 0.00 0.00 42 1018.6
20260507121539 72 197 6.1 12.2 0.00 0.00 0.00 44 1018.6
20260507120038 73 195 7.0 12.2 0.00 0.00 0.00 46 1018.6
20260507114537 73 197 6.1 11.3 0.00 0.00 0.00 44 1018.7
20260507113037 72 197 6.1 12.2 0.00 0.00 0.00 51 1018.8
20260507111520 72 200 6.1 11.3 0.00 0.00 0.00 54 1019.0
20260507110021 72 200 5.2 12.2 0.00 0.00 0.00 58 1018.8
20260507104520 73 195 4.3 11.3 0.00 0.00 0.00 53 1018.9
20260507103018 73 197 5.2 10.4 0.00 0.00 0.00 50 1018.5
20260507101518 73 200 6.1 11.3 0.00 0.00 0.00 50 1018.3
20260507100015 73 197 3.5 8.7 0.00 0.00 0.00 53 1018.4
20260507094511 71 198 0.0 7.0 0.00 0.00 0.00 73 1018.5
20260507093011 70 197 3.5 8.7 0.00 0.00 0.00 73 1018.6
20260507091557 70 197 3.5 7.8 0.00 0.00 0.00 67 1018.6
20260507090106 70 197 0.9 6.1 0.00 0.00 0.00 69 1018.4
20260507084553 70 197 1.7 5.2 0.00 0.00 0.00 68 1018.6
20260507083050 70 197 0.0 2.6 0.00 0.00 0.00 68 1018.5
20260507081548 69 198 0.0 0.9 0.00 0.00 0.00 66 1018.5
20260507080047 68 197 1.7 6.1 0.00 0.00 0.00 67 1018.6
20260507074552 68 197 0.0 5.2 0.00 0.00 0.00 65 1018.5
20260507073043 68 198 2.6 6.1 0.00 0.00 0.00 64 1018.2
20260507071530 68 197 1.7 6.1 0.00 0.00 0.00 59 1018.2
20260507070029 68 198 3.5 7.8 0.00 0.00 0.00 59 1018.4
20260507064527 67 198 0.0 7.0 0.00 0.00 0.00 61 1018.4
20260507063029 66 197 4.3 7.8 0.00 0.00 0.00 62 1018.2
20260507061527 66 197 3.5 7.8 0.00 0.00 0.00 61 1018.3
20260507060023 66 198 3.5 7.0 0.00 0.00 0.00 60 1018.2
20260507054520 67 197 2.6 5.2 0.00 0.00 0.00 54 1018.1